| time (UTC) | temp F | wind direction | speed MPH | gust MPH | rain 1hr in | rain 24hr in | rain mn in | humidity % | barometer mb |
| 20260506144207 | 65 | 239 | 1.0 | 1.0 | 0.00 | 0.00 | 0.00 | 77 | 1009.8 |
| 20260506143705 | 65 | 240 | 1.0 | 1.0 | 0.00 | 0.00 | 0.00 | 79 | 1010.0 |
| 20260506143202 | 65 | 242 | 0.0 | 0.0 | 0.00 | 0.00 | 0.00 | 79 | 1009.9 |
| 20260506142701 | 65 | 237 | 1.0 | 1.0 | 0.00 | 0.00 | 0.00 | 79 | 1010.2 |
| 20260506142158 | 65 | 237 | 0.0 | 1.0 | 0.00 | 0.00 | 0.00 | 78 | 1010.0 |
| 20260506141656 | 65 | 239 | 1.0 | 2.0 | 0.00 | 0.00 | 0.00 | 78 | 1010.0 |
| 20260506141154 | 65 | 239 | 1.0 | 1.0 | 0.00 | 0.00 | 0.00 | 77 | 1009.9 |
| 20260506140651 | 65 | 242 | 0.0 | 0.0 | 0.00 | 0.00 | 0.00 | 77 | 1010.0 |
| 20260506140148 | 65 | 241 | 0.0 | 1.0 | 0.00 | 0.00 | 0.00 | 76 | 1009.8 |
| 20260506135645 | 66 | 238 | 1.0 | 1.0 | 0.00 | 0.00 | 0.00 | 76 | 1009.9 |
| 20260506135141 | 65 | 259 | 0.0 | 0.0 | 0.00 | 0.00 | 0.00 | 76 | 1009.9 |
| 20260506134638 | 65 | 261 | 0.0 | 0.0 | 0.00 | 0.00 | 0.00 | 76 | 1009.7 |
| 20260506134134 | 65 | 289 | 2.0 | 2.0 | 0.00 | 0.00 | 0.00 | 76 | 1009.7 |
| 20260506133631 | 64 | 229 | 1.0 | 2.0 | 0.00 | 0.00 | 0.00 | 77 | 1009.5 |
| 20260506133128 | 64 | 248 | 1.0 | 1.0 | 0.00 | 0.00 | 0.00 | 76 | 1009.8 |
| 20260506132625 | 64 | 231 | 2.0 | 2.0 | 0.00 | 0.00 | 0.00 | 77 | 1009.8 |
| 20260506132122 | 64 | 254 | 0.0 | 1.0 | 0.00 | 0.00 | 0.00 | 78 | 1009.8 |
| 20260506131620 | 64 | 261 | 1.0 | 1.0 | 0.00 | 0.00 | 0.00 | 77 | 1010.0 |
| 20260506131116 | 64 | 281 | 1.0 | 1.0 | 0.00 | 0.00 | 0.00 | 77 | 1009.5 |
| 20260506130613 | 64 | 243 | 1.0 | 2.0 | 0.00 | 0.00 | 0.00 | 76 | 1009.6 |
| 20260506130110 | 64 | 248 | 2.0 | 2.0 | 0.00 | 0.00 | 0.00 | 76 | 1009.6 |
| 20260506125609 | 64 | 228 | 2.0 | 2.0 | 0.00 | 0.00 | 0.00 | 77 | 1009.2 |
| 20260506125106 | 64 | 233 | 1.0 | 1.0 | 0.00 | 0.00 | 0.00 | 78 | 1009.5 |
| 20260506124604 | 64 | 242 | 1.0 | 1.0 | 0.00 | 0.00 | 0.00 | 77 | 1009.6 |
| 20260506124101 | 64 | 244 | 1.0 | 2.0 | 0.00 | 0.00 | 0.00 | 77 | 1009.8 |
| 20260506123559 | 64 | 216 | 2.0 | 2.0 | 0.00 | 0.00 | 0.00 | 77 | 1009.8 |
| 20260506123057 | 63 | 246 | 0.0 | 0.0 | 0.00 | 0.00 | 0.00 | 77 | 1010.1 |
| 20260506122553 | 63 | 237 | 0.0 | 0.0 | 0.00 | 0.00 | 0.00 | 78 | 1010.2 |
| 20260506122051 | 63 | 234 | 0.0 | 1.0 | 0.00 | 0.00 | 0.00 | 77 | 1010.2 |
| 20260506121548 | 63 | 250 | 1.0 | 1.0 | 0.00 | 0.00 | 0.00 | 77 | 1010.3 |
| 20260506121045 | 63 | 241 | 2.0 | 2.0 | 0.00 | 0.00 | 0.00 | 78 | 1010.4 |
| 20260506120543 | 63 | 235 | 1.0 | 2.0 | 0.00 | 0.00 | 0.00 | 78 | 1010.3 |
| 20260506120040 | 63 | 247 | 1.0 | 1.0 | 0.00 | 0.00 | 0.00 | 78 | 1010.5 |
| 20260506115538 | 63 | 251 | 1.0 | 1.0 | 0.00 | 0.00 | 0.00 | 77 | 1010.2 |
| 20260506115036 | 62 | 238 | 2.0 | 2.0 | 0.00 | 0.00 | 0.00 | 78 | 1010.1 |
| 20260506114533 | 62 | 237 | 1.0 | 1.0 | 0.00 | 0.00 | 0.00 | 78 | 1010.1 |
| 20260506114032 | 62 | 238 | 1.0 | 1.0 | 0.00 | 0.00 | 0.00 | 78 | 1010.0 |
| 20260506113529 | 62 | 224 | 1.0 | 1.0 | 0.00 | 0.00 | 0.00 | 79 | 1010.2 |
| 20260506113026 | 62 | 233 | 2.0 | 2.0 | 0.00 | 0.00 | 0.00 | 78 | 1010.0 |
| 20260506112523 | 62 | 232 | 1.0 | 1.0 | 0.00 | 0.00 | 0.00 | 78 | 1010.2 |
| 20260506112020 | 62 | 231 | 2.0 | 2.0 | 0.00 | 0.00 | 0.00 | 79 | 1010.0 |
| 20260506111518 | 61 | 233 | 1.0 | 1.0 | 0.00 | 0.00 | 0.00 | 79 | 1009.9 |
| 20260506111015 | 61 | 243 | 1.0 | 1.0 | 0.00 | 0.00 | 0.00 | 81 | 1009.8 |
| 20260506110512 | 61 | 238 | 1.0 | 1.0 | 0.00 | 0.00 | 0.00 | 81 | 1009.8 |
| 20260506110009 | 61 | 238 | 0.0 | 0.0 | 0.00 | 0.00 | 0.00 | 82 | 1009.5 |
| 20260506105505 | 61 | 253 | 0.0 | 0.0 | 0.00 | 0.00 | 0.00 | 82 | 1009.6 |
| 20260506105003 | 60 | 239 | 0.0 | 0.0 | 0.00 | 0.00 | 0.00 | 82 | 1009.2 |
| 20260506104501 | 60 | 243 | 0.0 | 0.0 | 0.00 | 0.00 | 0.00 | 82 | 1009.1 |
| 20260506103959 | 60 | 227 | 0.0 | 0.0 | 0.00 | 0.00 | 0.00 | 81 | 1009.3 |
| 20260506103455 | 60 | 234 | 0.0 | 0.0 | 0.00 | 0.00 | 0.00 | 82 | 1008.9 |
| 20260506102952 | 60 | 236 | 0.0 | 0.0 | 0.00 | 0.00 | 0.00 | 81 | 1009.0 |
| 20260506102450 | 60 | 258 | 0.0 | 0.0 | 0.00 | 0.00 | 0.00 | 81 | 1008.8 |
| 20260506101947 | 60 | 252 | 0.0 | 0.0 | 0.00 | 0.00 | 0.00 | 82 | 1008.9 |
| 20260506101444 | 60 | 254 | 0.0 | 1.0 | 0.00 | 0.00 | 0.00 | 81 | 1008.9 |
| 20260506100941 | 60 | 239 | 0.0 | 0.0 | 0.00 | 0.00 | 0.00 | 80 | 1009.2 |
| 20260506100440 | 60 | 240 | 0.0 | 0.0 | 0.00 | 0.00 | 0.00 | 82 | 1009.1 |
| 20260506095937 | 61 | 249 | 0.0 | 0.0 | 0.00 | 0.00 | 0.00 | 81 | 1008.8 |
| 20260506095436 | 61 | 236 | 0.0 | 0.0 | 0.00 | 0.00 | 0.00 | 79 | 1009.2 |
| 20260506094931 | 61 | 235 | 0.0 | 0.0 | 0.00 | 0.00 | 0.00 | 81 | 1008.9 |
| 20260506094430 | 61 | 233 | 1.0 | 1.0 | 0.00 | 0.00 | 0.00 | 80 | 1009.2 |
| 20260506093927 | 62 | 260 | 1.0 | 1.0 | 0.00 | 0.00 | 0.00 | 79 | 1009.2 |
| 20260506093425 | 62 | 257 | 1.0 | 1.0 | 0.00 | 0.00 | 0.00 | 78 | 1009.3 |
| 20260506092923 | 62 | 233 | 0.0 | 0.0 | 0.00 | 0.00 | 0.00 | 78 | 1009.1 |
| 20260506092420 | 62 | 246 | 1.0 | 1.0 | 0.00 | 0.00 | 0.00 | 79 | 1009.2 |
| 20260506091916 | 62 | 228 | 0.0 | 1.0 | 0.00 | 0.00 | 0.00 | 78 | 1009.3 |
| 20260506091415 | 62 | 232 | 0.0 | 0.0 | 0.00 | 0.00 | 0.00 | 77 | 1009.3 |
| 20260506090911 | 62 | 232 | 0.0 | 0.0 | 0.00 | 0.00 | 0.00 | 76 | 1009.5 |
| 20260506090410 | 62 | 239 | 2.0 | 2.0 | 0.00 | 0.00 | 0.00 | 77 | 1009.3 |
| 20260506085906 | 62 | 219 | 0.0 | 1.0 | 0.00 | 0.00 | 0.00 | 77 | 1009.3 |
| 20260506085403 | 62 | 220 | 0.0 | 0.0 | 0.00 | 0.00 | 0.00 | 77 | 1009.7 |
| 20260506084859 | 62 | 211 | 1.0 | 1.0 | 0.00 | 0.00 | 0.00 | 77 | 1009.8 |
| 20260506084355 | 62 | 220 | 2.0 | 2.0 | 0.00 | 0.00 | 0.00 | 77 | 1009.7 |
| 20260506083852 | 62 | 236 | 1.0 | 1.0 | 0.00 | 0.00 | 0.00 | 78 | 1009.7 |
| 20260506083350 | 62 | 230 | 0.0 | 0.0 | 0.00 | 0.00 | 0.00 | 78 | 1009.6 |
| 20260506082847 | 62 | 240 | 0.0 | 0.0 | 0.00 | 0.00 | 0.00 | 79 | 1009.9 |
| 20260506082344 | 62 | 233 | 0.0 | 0.0 | 0.00 | 0.00 | 0.00 | 77 | 1009.8 |
| 20260506081839 | 63 | 234 | 0.0 | 0.0 | 0.00 | 0.00 | 0.00 | 78 | 1009.6 |
| 20260506081338 | 63 | 257 | 1.0 | 1.0 | 0.00 | 0.00 | 0.00 | 78 | 1010.0 |
| 20260506080835 | 63 | 251 | 0.0 | 0.0 | 0.00 | 0.00 | 0.00 | 78 | 1009.7 |
| 20260506080331 | 63 | 248 | 1.0 | 1.0 | 0.00 | 0.00 | 0.00 | 76 | 1009.7 |
| 20260506073316 | 63 | 248 | 0.0 | 0.0 | 0.00 | 0.00 | 0.00 | 77 | 1009.8 |
| 20260506072812 | 63 | 225 | 1.0 | 1.0 | 0.00 | 0.00 | 0.00 | 78 | 1010.0 |
| 20260506072310 | 62 | 228 | 0.0 | 0.0 | 0.00 | 0.00 | 0.00 | 78 | 1010.0 |
| 20260506071808 | 62 | 262 | 1.0 | 1.0 | 0.00 | 0.00 | 0.00 | 78 | 1009.9 |
| 20260506071306 | 63 | 260 | 0.0 | 1.0 | 0.00 | 0.00 | 0.00 | 79 | 1009.7 |
| 20260506070802 | 63 | 255 | 0.0 | 0.0 | 0.00 | 0.00 | 0.00 | 78 | 1009.5 |
| 20260506070259 | 63 | 225 | 0.0 | 0.0 | 0.00 | 0.00 | 0.00 | 76 | 1009.2 |
| 20260506062236 | 63 | 242 | 0.0 | 0.0 | 0.00 | 0.00 | 0.00 | 75 | 1010.0 |
| 20260506061726 | 63 | 239 | 1.0 | 1.0 | 0.00 | 0.00 | 0.00 | 76 | 1010.0 |
| 20260506061224 | 63 | 241 | 1.0 | 1.0 | 0.00 | 0.00 | 0.00 | 76 | 1009.9 |
| 20260506060723 | 63 | 228 | 0.0 | 0.0 | 0.00 | 0.00 | 0.00 | 76 | 1010.1 |
| 20260506060219 | 64 | 253 | 0.0 | 0.0 | 0.00 | 0.00 | 0.00 | 74 | 1010.2 |
| 20260506051145 | 65 | 258 | 0.0 | 1.0 | 0.00 | 0.00 | 0.00 | 72 | 1010.1 |
| 20260506050644 | 65 | 229 | 1.0 | 2.0 | 0.00 | 0.00 | 0.00 | 70 | 1009.9 |
| 20260506050140 | 65 | 248 | 1.0 | 1.0 | 0.00 | 0.00 | 0.00 | 69 | 1010.0 |
| 20260506045133 | 65 | 236 | 2.0 | 2.0 | 0.00 | 0.00 | 0.00 | 69 | 1010.1 |
| 20260506044631 | 65 | 219 | 2.0 | 2.0 | 0.00 | 0.00 | 0.00 | 68 | 1010.3 |
| 20260506044128 | 65 | 206 | 3.0 | 3.0 | 0.00 | 0.00 | 0.00 | 69 | 1010.4 |
| 20260506043625 | 65 | 242 | 1.0 | 1.0 | 0.00 | 0.00 | 0.00 | 68 | 1010.1 |
| 20260506043124 | 64 | 231 | 2.0 | 3.0 | 0.00 | 0.00 | 0.00 | 70 | 1010.5 |
| 20260506042622 | 64 | 192 | 0.0 | 1.0 | 0.00 | 0.00 | 0.00 | 72 | 1010.1 |
| 20260506042120 | 63 | 255 | 0.0 | 0.0 | 0.00 | 0.00 | 0.00 | 73 | 1010.0 |
| 20260506041618 | 63 | 234 | 1.0 | 1.0 | 0.00 | 0.00 | 0.00 | 73 | 1009.9 |
| 20260506041114 | 63 | 247 | 0.0 | 0.0 | 0.00 | 0.00 | 0.00 | 72 | 1009.9 |
| 20260506040612 | 63 | 254 | 0.0 | 0.0 | 0.00 | 0.00 | 0.00 | 73 | 1010.0 |
| 20260506040109 | 63 | 224 | 0.0 | 0.0 | 0.00 | 0.00 | 0.00 | 72 | 1009.9 |
| 20260506035606 | 63 | 243 | 0.0 | 0.0 | 0.00 | 0.00 | 0.00 | 72 | 1010.0 |
| 20260506035102 | 62 | 248 | 0.0 | 1.0 | 0.00 | 0.00 | 0.00 | 73 | 1009.8 |
| 20260506034600 | 61 | 236 | 1.0 | 1.0 | 0.00 | 0.00 | 0.00 | 75 | 1010.0 |
| 20260506034056 | 60 | 280 | 1.0 | 1.0 | 0.00 | 0.00 | 0.00 | 76 | 1010.0 |
| 20260506033554 | 60 | 254 | 0.0 | 1.0 | 0.00 | 0.00 | 0.00 | 76 | 1010.0 |
| 20260506033050 | 59 | 259 | 0.0 | 0.0 | 0.00 | 0.00 | 0.00 | 78 | 1009.8 |
| 20260506032548 | 59 | 254 | 0.0 | 0.0 | 0.00 | 0.00 | 0.00 | 79 | 1009.8 |
| 20260506032045 | 59 | 254 | 0.0 | 0.0 | 0.00 | 0.00 | 0.00 | 79 | 1009.8 |
| 20260506031542 | 59 | 254 | 0.0 | 0.0 | 0.00 | 0.00 | 0.00 | 79 | 1009.8 |
| 20260506031039 | 59 | 254 | 0.0 | 0.0 | 0.00 | 0.00 | 0.00 | 79 | 1009.8 |
| 20260506030537 | 59 | 254 | 0.0 | 0.0 | 0.00 | 0.00 | 0.00 | 79 | 1009.7 |
| 20260506030034 | 59 | 255 | 0.0 | 0.0 | 0.00 | 0.00 | 0.00 | 79 | 1009.9 |
| 20260506025531 | 59 | 254 | 0.0 | 0.0 | 0.00 | 0.00 | 0.00 | 79 | 1010.1 |
| 20260506025027 | 59 | 254 | 0.0 | 0.0 | 0.00 | 0.00 | 0.00 | 79 | 1010.0 |
| 20260506024524 | 59 | 254 | 0.0 | 0.0 | 0.00 | 0.00 | 0.00 | 79 | 1009.8 |
| 20260506024020 | 59 | 254 | 0.0 | 0.0 | 0.00 | 0.00 | 0.00 | 78 | 1010.0 |
| 20260506023517 | 59 | 254 | 0.0 | 0.0 | 0.00 | 0.00 | 0.00 | 78 | 1010.1 |
| 20260506023015 | 59 | 254 | 0.0 | 0.0 | 0.00 | 0.00 | 0.00 | 77 | 1010.0 |
| 20260506022512 | 59 | 254 | 0.0 | 0.0 | 0.00 | 0.00 | 0.00 | 77 | 1010.4 |
| 20260506022009 | 59 | 254 | 0.0 | 0.0 | 0.00 | 0.00 | 0.00 | 76 | 1010.4 |
| 20260506021507 | 60 | 254 | 0.0 | 0.0 | 0.00 | 0.00 | 0.00 | 76 | 1010.3 |
| 20260506021004 | 60 | 254 | 0.0 | 0.0 | 0.00 | 0.00 | 0.00 | 76 | 1010.2 |
| 20260506020501 | 60 | 254 | 0.0 | 0.0 | 0.00 | 0.00 | 0.00 | 75 | 1010.1 |
| 20260506015957 | 60 | 254 | 0.0 | 0.0 | 0.00 | 0.00 | 0.00 | 74 | 1010.2 |
| 20260506015455 | 61 | 254 | 0.0 | 0.0 | 0.00 | 0.00 | 0.00 | 74 | 1010.3 |
| 20260506014952 | 61 | 254 | 0.0 | 0.0 | 0.00 | 0.00 | 0.00 | 73 | 1010.2 |
| 20260506014449 | 61 | 253 | 0.0 | 0.0 | 0.00 | 0.00 | 0.00 | 73 | 1009.9 |
| 20260506013945 | 62 | 253 | 0.0 | 0.0 | 0.00 | 0.00 | 0.00 | 72 | 1010.0 |
| 20260506013444 | 62 | 253 | 0.0 | 0.0 | 0.00 | 0.00 | 0.00 | 72 | 1009.9 |
| 20260506012939 | 62 | 254 | 0.0 | 0.0 | 0.00 | 0.00 | 0.00 | 70 | 1010.0 |
| 20260506012436 | 63 | 254 | 0.0 | 0.0 | 0.00 | 0.00 | 0.00 | 69 | 1009.9 |
| 20260506011933 | 63 | 254 | 0.0 | 0.0 | 0.00 | 0.00 | 0.00 | 68 | 1009.9 |
| 20260506011431 | 64 | 253 | 0.0 | 0.0 | 0.00 | 0.00 | 0.00 | 66 | 1009.9 |
| 20260506010927 | 64 | 253 | 0.0 | 0.0 | 0.00 | 0.00 | 0.00 | 65 | 1010.0 |
| 20260506010426 | 64 | 254 | 0.0 | 0.0 | 0.00 | 0.00 | 0.00 | 65 | 1009.9 |
| 20260506005922 | 65 | 254 | 0.0 | 0.0 | 0.00 | 0.00 | 0.00 | 66 | 1009.8 |
| 20260506005420 | 65 | 238 | 0.0 | 0.0 | 0.00 | 0.00 | 0.00 | 62 | 1009.9 |
| 20260506004915 | 66 | 238 | 0.0 | 0.0 | 0.00 | 0.00 | 0.00 | 61 | 1009.6 |
| 20260506004413 | 66 | 238 | 0.0 | 0.0 | 0.00 | 0.00 | 0.00 | 59 | 1009.6 |
| 20260506003909 | 67 | 238 | 0.0 | 0.0 | 0.00 | 0.00 | 0.00 | 58 | 1009.5 |
| 20260506003405 | 68 | 238 | 0.0 | 0.0 | 0.00 | 0.00 | 0.00 | 55 | 1009.5 |
| 20260506002902 | 68 | 238 | 0.0 | 0.0 | 0.00 | 0.00 | 0.00 | 54 | 1009.4 |
| 20260506002358 | 69 | 238 | 0.0 | 0.0 | 0.00 | 0.00 | 0.00 | 52 | 1009.4 |
| 20260506001854 | 70 | 238 | 0.0 | 0.0 | 0.00 | 0.00 | 0.00 | 51 | 1009.6 |
| 20260506001351 | 70 | 219 | 0.0 | 1.0 | 0.00 | 0.00 | 0.00 | 51 | 1009.3 |
| 20260506000848 | 71 | 246 | 0.0 | 0.0 | 0.00 | 0.00 | 0.00 | 50 | 1009.6 |
| 20260506000346 | 71 | 246 | 0.0 | 0.0 | 0.00 | 0.00 | 0.00 | 50 | 1009.4 |
| 20260505235842 | 72 | 268 | 0.0 | 0.0 | 0.00 | 0.00 | 0.00 | 49 | 1009.3 |
| 20260505235340 | 72 | 225 | 0.0 | 0.0 | 0.00 | 0.00 | 0.00 | 49 | 1009.4 |
| 20260505234837 | 72 | 262 | 0.0 | 0.0 | 0.00 | 0.00 | 0.00 | 48 | 1009.4 |
| 20260505234335 | 73 | 262 | 0.0 | 0.0 | 0.00 | 0.00 | 0.00 | 48 | 1009.2 |
| 20260505233831 | 73 | 260 | 0.0 | 0.0 | 0.00 | 0.00 | 0.00 | 48 | 1009.1 |
| 20260505233329 | 73 | 220 | 0.0 | 1.0 | 0.00 | 0.00 | 0.00 | 47 | 1009.2 |
| 20260505232826 | 74 | 221 | 0.0 | 0.0 | 0.00 | 0.00 | 0.00 | 48 | 1009.3 |
| 20260505232324 | 74 | 243 | 1.0 | 1.0 | 0.00 | 0.00 | 0.00 | 45 | 1009.1 |
| 20260505231820 | 74 | 278 | 0.0 | 0.0 | 0.00 | 0.00 | 0.00 | 45 | 1009.1 |
| 20260505231318 | 75 | 238 | 0.0 | 0.0 | 0.00 | 0.00 | 0.00 | 46 | 1009.1 |
| 20260505230816 | 75 | 231 | 0.0 | 0.0 | 0.00 | 0.00 | 0.00 | 45 | 1009.0 |
| 20260505230313 | 75 | 208 | 1.0 | 2.0 | 0.00 | 0.00 | 0.00 | 45 | 1009.1 |
| 20260505225809 | 75 | 252 | 0.0 | 1.0 | 0.00 | 0.00 | 0.00 | 47 | 1009.2 |
| 20260505225307 | 75 | 236 | 1.0 | 1.0 | 0.00 | 0.00 | 0.00 | 45 | 1009.2 |
| 20260505224802 | 75 | 249 | 1.0 | 1.0 | 0.00 | 0.00 | 0.00 | 43 | 1009.1 |
| 20260505224300 | 75 | 317 | 0.0 | 0.0 | 0.00 | 0.00 | 0.00 | 43 | 1008.9 |
| 20260505223757 | 75 | 249 | 1.0 | 1.0 | 0.00 | 0.00 | 0.00 | 44 | 1009.0 |
| 20260505223254 | 75 | 238 | 1.0 | 1.0 | 0.00 | 0.00 | 0.00 | 44 | 1009.0 |
| 20260505222749 | 76 | 232 | 1.0 | 1.0 | 0.00 | 0.00 | 0.00 | 44 | 1009.0 |
| 20260505222246 | 77 | 174 | 1.0 | 2.0 | 0.00 | 0.00 | 0.00 | 41 | 1009.4 |
| 20260505221743 | 77 | 219 | 0.0 | 1.0 | 0.00 | 0.00 | 0.00 | 41 | 1009.3 |
| 20260505221240 | 77 | 243 | 2.0 | 2.0 | 0.00 | 0.00 | 0.00 | 40 | 1009.4 |
| 20260505220736 | 77 | 233 | 3.0 | 3.0 | 0.00 | 0.00 | 0.00 | 42 | 1009.4 |
| 20260505220234 | 77 | 270 | 2.0 | 2.0 | 0.00 | 0.00 | 0.00 | 41 | 1009.6 |
| 20260505215732 | 77 | 168 | 2.0 | 2.0 | 0.00 | 0.00 | 0.00 | 41 | 1009.3 |
| 20260505215229 | 78 | 241 | 2.0 | 2.0 | 0.00 | 0.00 | 0.00 | 40 | 1009.3 |
| 20260505214727 | 78 | 245 | 1.0 | 2.0 | 0.00 | 0.00 | 0.00 | 39 | 1009.4 |
| 20260505214224 | 78 | 235 | 1.0 | 1.0 | 0.00 | 0.00 | 0.00 | 38 | 1009.5 |
| 20260505213721 | 78 | 234 | 4.0 | 6.0 | 0.00 | 0.00 | 0.00 | 38 | 1009.6 |
| 20260505213219 | 77 | 338 | 1.0 | 1.0 | 0.00 | 0.00 | 0.00 | 38 | 1009.6 |
| 20260505212714 | 78 | 206 | 2.0 | 5.0 | 0.00 | 0.00 | 0.00 | 39 | 1009.6 |
| 20260505212212 | 78 | 228 | 0.0 | 1.0 | 0.00 | 0.00 | 0.00 | 40 | 1009.5 |
| 20260505211709 | 79 | 243 | 2.0 | 2.0 | 0.00 | 0.00 | 0.00 | 37 | 1009.6 |
| 20260505211206 | 79 | 222 | 3.0 | 3.0 | 0.00 | 0.00 | 0.00 | 38 | 1009.7 |
| 20260505210703 | 79 | 248 | 1.0 | 1.0 | 0.00 | 0.00 | 0.00 | 36 | 1009.5 |
| 20260505210159 | 79 | 224 | 2.0 | 3.0 | 0.00 | 0.00 | 0.00 | 37 | 1009.6 |
| 20260505205657 | 79 | 235 | 4.0 | 5.0 | 0.00 | 0.00 | 0.00 | 37 | 1009.5 |
| 20260505205155 | 79 | 252 | 3.0 | 3.0 | 0.00 | 0.00 | 0.00 | 37 | 1009.6 |
| 20260505204651 | 79 | 247 | 1.0 | 3.0 | 0.00 | 0.00 | 0.00 | 37 | 1009.6 |
| 20260505204149 | 79 | 257 | 2.0 | 3.0 | 0.00 | 0.00 | 0.00 | 37 | 1009.7 |
| 20260505203646 | 80 | 269 | 4.0 | 6.0 | 0.00 | 0.00 | 0.00 | 38 | 1009.7 |
| 20260505203143 | 81 | 179 | 3.0 | 3.0 | 0.00 | 0.00 | 0.00 | 35 | 1009.6 |
| 20260505202638 | 81 | 261 | 1.0 | 1.0 | 0.00 | 0.00 | 0.00 | 37 | 1010.0 |
| 20260505202134 | 80 | 248 | 1.0 | 2.0 | 0.00 | 0.00 | 0.00 | 38 | 1010.0 |
| 20260505201631 | 79 | 262 | 1.0 | 1.0 | 0.00 | 0.00 | 0.00 | 38 | 1009.9 |
| 20260505201130 | 79 | 287 | 0.0 | 1.0 | 0.00 | 0.00 | 0.00 | 37 | 1010.0 |
| 20260505200627 | 79 | 227 | 3.0 | 5.0 | 0.00 | 0.00 | 0.00 | 37 | 1009.9 |
| 20260505200123 | 80 | 233 | 3.0 | 5.0 | 0.00 | 0.00 | 0.00 | 37 | 1010.0 |
| 20260505195614 | 82 | 228 | 3.0 | 3.0 | 0.00 | 0.00 | 0.00 | 36 | 1010.1 |
| 20260505195112 | 80 | 226 | 3.0 | 5.0 | 0.00 | 0.00 | 0.00 | 36 | 1010.2 |
| 20260505194608 | 80 | 230 | 1.0 | 2.0 | 0.00 | 0.00 | 0.00 | 35 | 1010.2 |
| 20260505194103 | 81 | 250 | 2.0 | 2.0 | 0.00 | 0.00 | 0.00 | 37 | 1010.2 |
| 20260505193601 | 81 | 224 | 3.0 | 3.0 | 0.00 | 0.00 | 0.00 | 36 | 1010.3 |
| 20260505193058 | 81 | 225 | 2.0 | 2.0 | 0.00 | 0.00 | 0.00 | 36 | 1010.4 |
| 20260505192557 | 81 | 252 | 2.0 | 2.0 | 0.00 | 0.00 | 0.00 | 35 | 1010.7 |
| 20260505192054 | 81 | 245 | 1.0 | 1.0 | 0.00 | 0.00 | 0.00 | 35 | 1010.7 |
| 20260505191552 | 80 | 266 | 3.0 | 3.0 | 0.00 | 0.00 | 0.00 | 35 | 1010.8 |
| 20260505191049 | 81 | 265 | 2.0 | 2.0 | 0.00 | 0.00 | 0.00 | 36 | 1010.8 |
| 20260505190544 | 81 | 267 | 3.0 | 3.0 | 0.00 | 0.00 | 0.00 | 35 | 1010.9 |
| 20260505190041 | 80 | 299 | 2.0 | 2.0 | 0.00 | 0.00 | 0.00 | 36 | 1010.9 |
| 20260505185538 | 79 | 272 | 1.0 | 2.0 | 0.00 | 0.00 | 0.00 | 38 | 1011.0 |
| 20260505185034 | 80 | 223 | 3.0 | 3.0 | 0.00 | 0.00 | 0.00 | 35 | 1011.0 |
| 20260505184531 | 80 | 248 | 2.0 | 3.0 | 0.00 | 0.00 | 0.00 | 36 | 1011.2 |
| 20260505184028 | 80 | 274 | 2.0 | 2.0 | 0.00 | 0.00 | 0.00 | 36 | 1011.4 |
| 20260505183524 | 80 | 196 | 3.0 | 3.0 | 0.00 | 0.00 | 0.00 | 38 | 1011.5 |
| 20260505183021 | 79 | 243 | 3.0 | 3.0 | 0.00 | 0.00 | 0.00 | 35 | 1011.6 |
| 20260505182512 | 80 | 232 | 4.0 | 5.0 | 0.00 | 0.00 | 0.00 | 36 | 1011.5 |
| 20260505182009 | 79 | 282 | 3.0 | 3.0 | 0.00 | 0.00 | 0.00 | 36 | 1011.8 |
| 20260505181506 | 80 | 257 | 3.0 | 5.0 | 0.00 | 0.00 | 0.00 | 35 | 1011.7 |
| 20260505181003 | 80 | 243 | 1.0 | 1.0 | 0.00 | 0.00 | 0.00 | 35 | 1011.7 |
| 20260505180458 | 80 | 274 | 4.0 | 5.0 | 0.00 | 0.00 | 0.00 | 35 | 1011.9 |
| 20260505175956 | 79 | 279 | 2.0 | 3.0 | 0.00 | 0.00 | 0.00 | 36 | 1011.8 |
| 20260505175451 | 79 | 242 | 3.0 | 3.0 | 0.00 | 0.00 | 0.00 | 36 | 1011.8 |
| 20260505174948 | 78 | 261 | 1.0 | 1.0 | 0.00 | 0.00 | 0.00 | 35 | 1011.6 |
| 20260505174446 | 79 | 256 | 3.0 | 3.0 | 0.00 | 0.00 | 0.00 | 35 | 1011.7 |
| 20260505173941 | 79 | 270 | 4.0 | 5.0 | 0.00 | 0.00 | 0.00 | 36 | 1011.6 |
| 20260505173438 | 79 | 241 | 2.0 | 2.0 | 0.00 | 0.00 | 0.00 | 36 | 1011.8 |
| 20260505172935 | 79 | 265 | 1.0 | 2.0 | 0.00 | 0.00 | 0.00 | 38 | 1011.6 |
| 20260505172434 | 78 | 242 | 4.0 | 5.0 | 0.00 | 0.00 | 0.00 | 37 | 1011.6 |
| 20260505171932 | 78 | 316 | 2.0 | 2.0 | 0.00 | 0.00 | 0.00 | 38 | 1011.8 |
| 20260505171430 | 78 | 21 | 1.0 | 1.0 | 0.00 | 0.00 | 0.00 | 38 | 1011.9 |
| 20260505170926 | 78 | 235 | 1.0 | 1.0 | 0.00 | 0.00 | 0.00 | 38 | 1011.9 |
| 20260505170423 | 77 | 276 | 2.0 | 2.0 | 0.00 | 0.00 | 0.00 | 39 | 1011.9 |
| 20260505165919 | 77 | 225 | 2.0 | 3.0 | 0.00 | 0.00 | 0.00 | 39 | 1012.2 |
| 20260505165415 | 77 | 234 | 2.0 | 2.0 | 0.00 | 0.00 | 0.00 | 40 | 1012.2 |
| 20260505164910 | 77 | 253 | 3.0 | 3.0 | 0.00 | 0.00 | 0.00 | 38 | 1012.3 |
| 20260505164407 | 77 | 277 | 3.0 | 3.0 | 0.00 | 0.00 | 0.00 | 39 | 1012.0 |
| 20260505163905 | 77 | 332 | 2.0 | 2.0 | 0.00 | 0.00 | 0.00 | 37 | 1012.2 |
| 20260505163404 | 77 | 250 | 3.0 | 3.0 | 0.00 | 0.00 | 0.00 | 39 | 1012.1 |
| 20260505162902 | 77 | 316 | 4.0 | 6.0 | 0.00 | 0.00 | 0.00 | 42 | 1012.1 |
| 20260505162358 | 77 | 235 | 1.0 | 2.0 | 0.00 | 0.00 | 0.00 | 43 | 1012.4 |
| 20260505161855 | 77 | 248 | 1.0 | 2.0 | 0.00 | 0.00 | 0.00 | 43 | 1012.4 |
| 20260505161352 | 77 | 281 | 2.0 | 2.0 | 0.00 | 0.00 | 0.00 | 43 | 1012.3 |
| 20260505160849 | 77 | 233 | 3.0 | 5.0 | 0.00 | 0.00 | 0.00 | 46 | 1012.5 |
| 20260505160347 | 76 | 235 | 1.0 | 1.0 | 0.00 | 0.00 | 0.00 | 44 | 1012.8 |
| 20260505153325 | 75 | 274 | 3.0 | 3.0 | 0.00 | 0.00 | 0.00 | 48 | 1012.5 |
| 20260505152822 | 75 | 232 | 3.0 | 3.0 | 0.00 | 0.00 | 0.00 | 47 | 1012.7 |
| 20260505152319 | 75 | 240 | 2.0 | 2.0 | 0.00 | 0.00 | 0.00 | 50 | 1012.5 |
| 20260505151814 | 76 | 249 | 1.0 | 1.0 | 0.00 | 0.00 | 0.00 | 47 | 1012.7 |
| 20260505151311 | 75 | 225 | 2.0 | 3.0 | 0.00 | 0.00 | 0.00 | 51 | 1012.8 |
| 20260505150807 | 74 | 218 | 1.0 | 1.0 | 0.00 | 0.00 | 0.00 | 52 | 1012.6 |
| 20260505150304 | 75 | 295 | 2.0 | 2.0 | 0.00 | 0.00 | 0.00 | 52 | 1012.6 |